Weather History for Pine Bluff, AR

Change the Weather History Date:

Friday, July 5, 2013

  Actual Average Record
Temperature  
Mean Temperature 77 °F 82 °F  
Max Temperature 91 °F 92 °F 102 °F (1954)
Min Temperature 62 °F 72 °F 57 °F (1922)
Degree Days  
Heating Degree Days 0 0  
Month to date heating degree days 0 0  
Since 1 June heating degree days 0 0  
Since 1 July heating degree days 0 0  
Cooling Degree Days 12 17  
Month to date cooling degree days 50 84  
Year to date cooling degree days 738 813  
Since 1 June cooling degree days 471 506  
Growing Degree Days 26 (Base 50)    
Moisture  
Dew Point 61 °F    
Average Humidity 60    
Maximum Humidity 90    
Minimum Humidity 29    
Precipitation  
Precipitation 0.00 in 0.13 in 2.74 in (1995)
Month to date precipitation 0.00 0.59  
Year to date precipitation 29.42 27.37  
Snow  
Snow 0.00 in 0.00 in - ()
Month to date snowfall 0.0 0.0  
Since 1 June snowfall 0.0 0.0  
Since 1 July snowfall 0.0 0.0  
Snow Depth 0.00 in    
Sea Level Pressure  
Sea Level Pressure 30.00 in    
Wind  
Wind Speed 5 mph (ENE)    
Max Wind Speed 15 mph    
Max Gust Speed 20 mph    
Visibility 9 miles    
Events      
T = Trace of Precipitation, MM = Missing Value Source: NWS Daily Summary

Daily Weather History Graph

Daily Weather History Graph

Search for Another Location

Airport:

Trip Planner

Search our weather history database for the weather conditions in past years. The results will help you decide how hot, cold, wet, or windy it might be!

Date:

Astronomy

Jul. 05, 2013 Rise Set
Actual Time 6:01 AM CDT 8:22 PM CDT
Civil Twilight 5:32 AM CDT 8:51 PM CDT
Nautical Twilight 4:56 AM CDT 9:27 PM CDT
Astronomical Twilight 4:17 AM CDT 10:06 PM CDT
Moon 3:58 AM CDT (7/5) 6:20 PM CDT (7/5)
Length of Visible Light 15h 19m
Length of Day
14h 21m
Waning Crescent, 6% of the Moon is Illuminated
Jul 5
Waning Crescent
Jul 8
New
Jul 15
First Quarter
Jul 22
Full
Jul 29
Last Quarter

Hourly Weather History & Observations

Time (CDT) Temp. Heat Index Dew Point Humidity Pressure Visibility Wind Dir Wind Speed Gust Speed Precip Events Conditions
12:53 AM 66.9 °F - 61.0 °F 81% 30.00 in 10.0 mi Calm Calm - N/A   Partly Cloudy
1:53 AM 66.0 °F - 61.0 °F 84% 29.99 in 5.0 mi Calm Calm - N/A   Haze
2:53 AM 64.0 °F - 59.0 °F 84% 29.99 in 6.0 mi Calm Calm - N/A   Haze
3:53 AM 64.9 °F - 61.0 °F 87% 29.99 in 5.0 mi Calm Calm - N/A   Clear
4:53 AM 62.1 °F - 59.0 °F 90% 29.99 in 6.0 mi SW 5.8 mph - N/A   Clear
5:53 AM 62.1 °F - 59.0 °F 90% 30.01 in 7.0 mi West 5.8 mph - N/A   Clear
6:53 AM 66.0 °F - 59.0 °F 78% 30.02 in 8.0 mi Calm Calm - N/A   Clear
7:53 AM 71.1 °F - 62.1 °F 73% 30.03 in 7.0 mi NW 3.5 mph - N/A   Clear
8:53 AM 77.0 °F - 62.1 °F 60% 30.04 in 10.0 mi North 4.6 mph - N/A   Clear
9:53 AM 81.0 °F 81.9 °F 62.1 °F 52% 30.03 in 10.0 mi NW 3.5 mph - N/A   Clear
10:53 AM 84.9 °F 84.4 °F 59.0 °F 41% 30.03 in 10.0 mi NNW 5.8 mph - N/A   Clear
11:53 AM 87.1 °F 86.7 °F 60.1 °F 40% 30.03 in 10.0 mi Variable 6.9 mph - N/A   Clear
12:53 PM 89.1 °F 86.9 °F 54.0 °F 30% 30.03 in 10.0 mi Variable 6.9 mph - N/A   Clear
1:53 PM 90.0 °F 89.1 °F 59.0 °F 35% 30.01 in 10.0 mi Variable 3.5 mph - N/A   Clear
2:53 PM 91.0 °F 89.2 °F 55.9 °F 30% 29.99 in 10.0 mi ENE 5.8 mph - N/A   Clear
3:53 PM 91.0 °F 89.7 °F 57.0 °F 32% 29.98 in 10.0 mi ESE 8.1 mph - N/A   Clear
4:53 PM 89.1 °F 87.3 °F 55.9 °F 32% 29.96 in 10.0 mi Variable 3.5 mph - N/A   Clear
5:53 PM 90.0 °F 88.1 °F 55.9 °F 31% 29.95 in 10.0 mi ESE 9.2 mph - N/A   Clear
6:53 PM 88.0 °F 88.7 °F 63.0 °F 43% 29.94 in 10.0 mi ENE 8.1 mph - N/A   Clear
7:53 PM 84.9 °F 87.1 °F 66.0 °F 53% 29.94 in 10.0 mi ENE 6.9 mph - N/A   Clear
8:53 PM 80.1 °F 81.9 °F 64.9 °F 60% 29.97 in 10.0 mi East 12.7 mph - N/A   Mostly Cloudy
9:53 PM 75.9 °F - 68.0 °F 76% 29.98 in 10.0 mi East 6.9 mph - N/A   Clear
10:53 PM 73.9 °F - 68.0 °F 82% 29.99 in 10.0 mi ESE 5.8 mph - N/A   Clear
11:53 PM 72.0 °F - 68.0 °F 87% 30.00 in 10.0 mi SE 3.5 mph - N/A   Clear